Location: Budapest
(47.4979°N, 19.0402°E)
Time: 15:57:57
(UTC+02:00)

Envisat - Pass Details

Date: 09 October 2017
Orbit: 764 x 766 km, 98.2° (Epoch: 21 October)

Event Time Altitude Azimuth Distance (km) Brightness Sun altitude
Exits shadow 19:23:35 19° 107° (ESE) 1,745 4.2 -13.7°
Maximum altitude 19:26:05 29° 64° (ENE) 1,378 3.9 -14.1°
Drops below altitude 10° 19:30:26 10° 5° (N) 2,313 5.5 -14.8°
Sets 19:32:59 0° 355° (N) 3,244 6.4 -15.3°
